DateTimeUTC,F1_A11,F1_S11,BsB_S11,BsG_S11,BsR_S11,BbsB_S11,BbsG_S11,BbsR_S11,BaB_A11,BaG_A11,BaR_A11,Tu_S11,T_S11,Uu_S11,U_S11,P_S11,T1_A11
2021-09-12T08:00:00Z,00000200,21000000,,,,,,,0000.32,-000.11,-000.29,19.4,26.2,,00.0,0661.4,31.0
2021-09-12T08:01:00Z,00000200,21000000,,,,,,,-000.36,0000.09,0000.34,19.4,26.2,,00.0,0661.4,31.1
2021-09-12T08:02:00Z,00000200,21000000,,,,,,,0000.38,0000.25,-000.19,19.4,26.3,,00.0,0661.4,31.1
2021-09-12T08:03:00Z,00000200,61000000,,,,,,,0000.20,0000.22,0000.20,19.4,26.3,,00.0,0661.4,31.1
2021-09-12T08:04:00Z,00000200,41000000,0000.35,0000.26,-000.34,0000.44,0000.15,-000.12,0000.11,0000.12,0000.36,19.7,26.2,00.0,00.0,0662.4,31.1
2021-09-12T08:05:00Z,00000200,01000000,0000.35,0000.49,0000.16,0000.17,0000.14,0000.12,0000.24,0000.20,0000.09,19.8,26.2,00.0,00.0,0662.4,31.1
2021-09-12T08:06:00Z,00000200,01000000,0000.50,0000.31,0000.04,0000.72,0000.13,0000.37,-000.14,-000.17,-000.13,19.8,26.2,00.0,00.0,0662.4,31.1
2021-09-12T08:07:00Z,00000200,01000000,-000.01,0000.13,0000.37,-000.03,-000.20,0000.06,0000.25,-000.30,-000.07,19.7,26.1,00.0,00.0,0662.3,31.0
2021-09-12T08:08:00Z,00000200,01000000,0000.59,0000.02,0000.38,-000.34,-000.02,0000.32,-000.41,-000.30,-000.08,19.6,26.1,00.0,00.0,0662.5,31.0
2021-09-12T08:09:00Z,00000200,01000000,0000.54,0000.20,0000.11,-000.18,0000.13,-000.26,-000.34,0000.02,-000.42,19.5,26.0,,00.0,0662.4,31.0
2021-09-12T08:10:00Z,00000200,01000000,0000.50,0000.42,0000.05,0000.12,0000.29,0000.11,0000.22,0000.04,0000.28,19.4,25.9,00.0,00.0,0662.4,31.0
2021-09-12T08:11:00Z,00000200,01000000,-000.13,0000.41,0000.26,0000.48,-000.16,0000.10,0000.43,0000.13,0000.00,19.3,25.9,00.0,00.0,0662.5,31.0
2021-09-12T08:12:00Z,00000200,01000000,-000.15,0000.17,-000.07,0000.52,-000.08,0000.24,0000.13,0000.39,0000.41,19.3,25.8,00.0,00.0,0662.4,31.0
2021-09-12T08:13:00Z,00000200,01000000,0000.25,0000.68,-000.05,-000.11,-000.18,0000.38,0000.34,0000.42,0000.26,19.3,25.8,00.0,00.0,0662.4,31.0
2021-09-12T08:14:00Z,00000200,01000000,-000.29,0000.18,0000.30,0000.48,0000.30,0000.30,0000.40,0000.43,0000.11,19.4,25.8,00.0,00.0,0662.4,31.0
2021-09-12T08:15:00Z,00000200,01000000,0000.97,0000.33,-000.00,0000.78,-000.12,0000.05,0000.06,0000.09,0000.40,19.4,25.9,00.0,00.0,0662.3,31.0
2021-09-12T08:16:00Z,00000200,01000000,0000.25,0000.16,0000.27,-000.23,0000.26,0000.30,0000.15,0000.18,0000.10,19.5,25.9,00.0,00.0,0662.3,31.0
2021-09-12T08:17:00Z,00000200,01000000,-000.25,0000.38,0000.31,0000.15,0000.07,-000.04,-000.33,-000.48,0000.08,19.6,26.0,00.0,00.0,0662.3,31.1
2021-09-12T08:18:00Z,00000200,01000000,-000.14,0000.66,0000.12,0000.61,0000.07,0000.12,0000.55,0000.71,0000.33,19.6,26.0,00.0,00.0,0662.3,31.1
2021-09-12T08:19:00Z,00000200,01000000,0000.37,0000.02,0000.42,-000.01,-000.05,-000.04,0000.21,0000.22,-000.23,19.7,26.0,,00.0,0662.2,31.1
2021-09-12T08:20:00Z,00000200,01000000,0000.34,-000.03,0000.40,0000.68,0000.23,-000.02,-000.14,0000.05,-000.06,19.7,26.0,00.0,00.0,0662.3,31.1
2021-09-12T08:21:00Z,00000200,01000000,0000.65,0000.31,0000.33,0000.16,0000.06,0000.30,0000.49,-000.02,0000.51,19.8,26.0,00.0,00.0,0662.3,31.1
2021-09-12T08:22:00Z,00000200,01000000,0000.67,0000.36,0000.17,0000.20,0000.10,0000.18,-000.16,0000.13,-000.09,19.8,26.0,00.0,00.0,0662.4,31.1
2021-09-12T08:23:00Z,00000200,01000000,0000.28,0000.57,0000.44,0000.12,0000.21,0000.21,0000.45,0000.32,0000.01,19.7,26.0,00.0,00.0,0662.2,31.1
2021-09-12T08:24:00Z,00000200,01000000,0000.75,0000.39,-000.07,0000.35,0000.14,-000.11,-000.24,-000.25,0000.06,19.6,26.0,00.0,00.0,0662.2,31.0
2021-09-12T08:25:00Z,00000200,01000000,0000.36,0000.33,0000.11,0000.19,0000.18,0000.13,0000.02,-000.54,-000.28,19.5,25.9,00.0,00.0,0662.2,31.0
2021-09-12T08:26:00Z,00000200,01000000,0000.45,0000.08,0000.10,0000.21,-000.11,0000.29,0000.07,0000.40,0000.26,19.5,25.9,00.0,00.0,0662.3,31.0
2021-09-12T08:27:00Z,00000200,01000000,0000.75,0000.37,-000.05,0000.35,-000.16,-000.20,0000.47,0000.49,-000.06,19.4,25.8,00.0,00.0,0662.3,31.0
2021-09-12T08:28:00Z,00000200,01000000,0001.09,0000.07,-000.02,0000.45,-000.16,0000.03,-000.03,-000.14,0000.16,19.4,25.8,00.0,00.0,0662.2,31.0
2021-09-12T08:29:00Z,00000200,01000000,0000.46,0000.23,0000.09,0000.18,0000.18,0000.05,0000.32,0000.45,0000.34,19.5,25.9,00.0,00.0,0662.2,31.0
2021-09-12T08:30:00Z,00000200,01000000,0000.05,0000.16,0000.05,-000.17,0000.28,0000.15,0000.41,0000.57,0000.48,19.5,25.9,00.0,00.0,0662.4,31.0
2021-09-12T08:31:00Z,00000200,01000000,0000.29,0000.20,0000.43,-000.05,-000.04,0000.03,-000.09,-000.10,-000.07,19.6,25.9,00.0,00.0,0662.1,31.0
2021-09-12T08:32:00Z,00000200,01000000,0001.49,0000.14,-000.00,0000.04,0000.06,-000.15,0000.22,0000.38,0000.16,19.7,26.0,00.0,00.0,0662.1,31.1
2021-09-12T08:33:00Z,00000200,01000000,0000.76,0000.58,0000.01,0000.71,-000.00,0000.11,0000.07,0000.04,0000.29,19.7,26.0,00.0,00.0,0662.1,31.1
2021-09-12T08:34:00Z,00000200,01000000,0001.20,0000.24,0000.28,-000.05,0000.43,0000.20,0000.34,0000.14,0000.10,19.8,26.0,00.0,00.0,0662.1,31.1
2021-09-12T08:35:00Z,00000200,01000000,0000.35,0000.28,0000.16,0000.27,0000.26,-000.24,-000.00,0000.05,0000.03,19.8,26.1,00.0,00.0,0662.0,31.1
2021-09-12T08:36:00Z,00000200,01000000,0000.56,0000.05,0000.23,0000.34,-000.05,0000.08,0000.15,0000.11,-000.10,19.8,26.0,00.0,00.0,0661.9,31.1
2021-09-12T08:37:00Z,00000200,01000000,0000.43,0000.14,0000.46,0000.48,0000.02,0000.31,0000.06,-000.12,0000.09,19.8,26.0,00.0,00.0,0662.0,31.1
2021-09-12T08:38:00Z,00000200,01000000,0000.41,-000.01,0000.04,0000.41,0000.02,-000.30,-000.22,-000.03,-000.14,19.7,26.0,00.0,00.0,0661.9,31.1
2021-09-12T08:39:00Z,00000200,01000000,-000.30,0000.39,-000.02,0000.14,0000.24,0000.27,0000.25,-000.11,-000.12,19.6,25.9,00.0,00.0,0661.9,31.0
2021-09-12T08:40:00Z,00000200,01000000,0000.94,0000.28,-000.02,0000.54,0000.16,0000.24,-000.39,-000.25,-000.19,19.5,25.9,00.0,00.0,0662.0,31.0
2021-09-12T08:41:00Z,00000200,01000000,0000.25,-000.17,0000.29,-000.11,-000.15,-000.05,0000.29,0000.49,0000.07,19.4,25.8,00.0,00.0,0661.9,31.0
2021-09-12T08:42:00Z,00000200,01000000,0000.29,0000.34,0000.19,0000.41,0000.08,-000.01,0000.35,-000.06,0000.25,19.3,25.8,00.0,00.0,0661.9,31.0
2021-09-12T08:43:00Z,00000200,01000000,0000.51,0000.15,0000.39,0000.29,-000.13,0000.19,-000.08,0000.48,0000.23,19.4,25.8,00.0,00.0,0661.8,31.0
2021-09-12T08:44:00Z,00000200,01000000,0000.51,0000.27,0000.17,0000.48,0000.19,0000.03,0000.41,0000.32,0000.36,19.4,25.8,00.0,00.0,0662.0,31.0
2021-09-12T08:45:00Z,00000200,01000000,-000.01,0000.36,0000.17,0000.09,-000.19,-000.22,0000.18,0000.08,0000.34,19.5,25.8,00.0,00.0,0661.9,31.0
2021-09-12T08:46:00Z,00000200,01000000,0000.51,0000.63,0000.22,-000.13,-000.18,0000.11,0000.28,0000.30,-000.30,19.5,25.9,00.0,00.0,0662.0,31.1
2021-09-12T08:47:00Z,00000200,01000000,0000.19,0000.07,-000.08,-000.01,0000.19,0000.11,0000.07,-000.17,0000.09,19.6,25.9,00.0,00.0,0661.8,31.1
2021-09-12T08:48:00Z,00000200,01000000,0001.04,0000.19,0000.28,0000.53,0000.18,0000.28,0000.20,0000.27,0000.29,19.6,25.9,00.1,00.0,0661.8,31.1
2021-09-12T08:49:00Z,00000200,01000000,0000.76,-000.14,0000.11,0000.32,0000.25,0000.06,0000.42,0000.06,0000.37,19.7,26.0,00.0,00.0,0661.8,31.1
2021-09-12T08:50:00Z,00000200,01000000,0000.82,0000.15,0000.05,0000.66,0000.06,-000.05,-000.15,0000.33,0000.19,19.7,26.0,00.0,00.0,0661.9,31.1
2021-09-12T08:51:00Z,00000200,01000000,0000.19,0000.21,0000.06,0000.63,0000.09,0000.10,0000.41,0000.07,-000.20,19.8,26.0,00.0,00.0,0662.0,31.1
2021-09-12T08:52:00Z,00000200,01000000,0000.07,0000.31,-000.06,0000.21,0000.40,0000.33,-000.31,-000.01,0000.05,19.8,26.0,00.0,00.0,0661.9,31.1
2021-09-12T08:53:00Z,00000200,01000000,0000.23,0000.12,0000.25,-000.04,-000.06,0000.31,0000.35,0000.14,0000.18,19.7,26.0,00.0,00.0,0661.8,31.1
2021-09-12T08:54:00Z,00000200,01000000,0000.32,0000.07,0000.25,-000.01,-000.06,0000.32,-000.67,-000.12,-000.44,19.6,26.0,00.0,00.0,0661.8,31.0
2021-09-12T08:55:00Z,00000200,01000000,-000.11,0000.09,-000.06,-000.10,0000.15,-000.14,0000.06,-000.32,-000.11,19.5,25.9,00.0,00.0,0661.8,31.0
2021-09-12T08:56:00Z,00000200,01000000,0000.26,0000.06,0000.34,-000.17,-000.04,-000.09,0000.43,0000.03,0000.58,19.4,25.8,00.0,00.0,0661.9,31.0
2021-09-12T08:57:00Z,00000200,41000000,,,,,,,-000.22,0000.18,-000.30,19.4,25.8,,00.0,0662.0,31.0
2021-09-12T08:58:00Z,00000200,61000000,,,,,,,0000.21,0000.06,0000.13,19.2,25.9,,00.0,0660.9,31.0
2021-09-12T08:59:00Z,00000200,21000000,,,,,,,-000.01,0000.24,-000.05,19.2,26.0,,00.0,0660.8,31.0
